Tracking 29892 objects as of 21-Nov-2024
HD Live streaming from Space Station
objects crossing your sky now

STARLINK-5557

Track STARLINK-5557 now!
10-day predictions
STARLINK-5557 is classified as:


NORAD ID: 55770
Int'l Code: 2023-028AF
Perigee: 577.1 km
Apogee: 581.3 km
Inclination: 70.0 °
Period: 96.1 minutes
Semi major axis: 6950 km
RCS: Unknown
Launch date: March 3, 2023
Source: United States (US)
Launch site: AIR FORCE WESTERN TEST RANGE (AFWTR)
Your satellite tracking list
Your tracking list is empty




NASA's NSSDC Master Catalog

Two Line Element Set (TLE):
1 55770U 23028AF  24325.03515981  .00000620  00000-0  59767-4 0  9993
2 55770  69.9991 341.2583 0003034 274.4415  85.6398 14.98330625 95433
Source of the keplerian elements: AFSPC